Location: *
(49.8044°N, 4.0558°E)
Time: 17:29:05
(UTC+00:00)

Cosmos 1825 Rocket - Pass Details

Date: 09 April 2020
Orbit: 603 x 631 km, 82.5° (Epoch: 02 June)

Event Time Altitude Azimuth Distance (km) Brightness Sun altitude
Rises 19:02:02 0° 349° (NNW) 2,908 7.5 -6.0°
Reaches altitude 10° 19:04:17 10° 348° (NNW) 1,992 6.6 -6.3°
Maximum altitude 19:08:42 80° 262° (W) 630 3.7 -7.0°
Drops below altitude 10° 19:13:02 10° 176° (S) 1,959 5.9 -7.7°
Sets 19:15:14 0° 175° (S) 2,855 6.7 -8.0°
